TimeCDT,TemperatureF,Dew PointF,Humidity,Sea Level PressureIn,VisibilityMPH,Wind Direction,Wind SpeedMPH,Gust SpeedMPH,PrecipitationIn,Events,Conditions,WindDirDegrees,DateUTC
12:15 AM,62.6,55.4,77,29.51,10.0,ESE,8.1,-,N/A,,Overcast,110,2013-05-21 05:15:00
12:35 AM,62.6,53.6,72,29.52,10.0,East,8.1,-,N/A,,Overcast,100,2013-05-21 05:35:00
12:55 AM,62.6,55.4,77,29.52,10.0,East,9.2,-,N/A,,Overcast,90,2013-05-21 05:55:00
1:15 AM,62.6,55.4,77,29.51,10.0,East,8.1,-,N/A,,Overcast,90,2013-05-21 06:15:00
1:35 AM,62.6,57.2,82,29.52,7.0,East,9.2,-,N/A,,Overcast,100,2013-05-21 06:35:00
1:55 AM,62.6,57.2,82,29.51,7.0,East,9.2,-,0.01,,Drizzle,80,2013-05-21 06:55:00
2:15 AM,62.6,57.2,82,29.50,10.0,East,6.9,-,N/A,,Mostly Cloudy,80,2013-05-21 07:15:00
2:35 AM,62.6,57.2,82,29.50,10.0,East,11.5,-,N/A,,Mostly Cloudy,90,2013-05-21 07:35:00
2:55 AM,62.6,57.2,82,29.49,7.0,East,9.2,-,N/A,,Overcast,80,2013-05-21 07:55:00
3:15 AM,62.6,57.2,82,29.49,7.0,East,8.1,-,N/A,,Overcast,80,2013-05-21 08:15:00
3:35 AM,62.6,57.2,82,29.50,7.0,ENE,12.7,17.3,N/A,,Overcast,70,2013-05-21 08:35:00
3:55 AM,60.8,57.2,88,29.50,3.0,ENE,11.5,-,0.01,Rain,Light Rain,70,2013-05-21 08:55:00
4:15 AM,60.8,55.4,82,29.50,4.0,ENE,13.8,-,0.01,Rain,Light Rain,70,2013-05-21 09:15:00
4:35 AM,57.2,55.4,94,29.50,4.0,ENE,16.1,20.7,0.02,Rain,Light Rain,70,2013-05-21 09:35:00
4:55 AM,57.2,55.4,94,29.51,4.0,East,11.5,18.4,0.04,Rain,Rain,80,2013-05-21 09:55:00
5:15 AM,57.2,53.6,88,29.51,4.0,ENE,12.7,-,0.01,Rain,Light Rain,70,2013-05-21 10:15:00
5:35 AM,57.2,53.6,88,29.51,2.5,East,12.7,-,0.01,,Overcast,80,2013-05-21 10:35:00
5:55 AM,57.2,53.6,88,29.51,3.0,ENE,13.8,20.7,0.01,,Overcast,70,2013-05-21 10:55:00
6:15 AM,57.2,53.6,88,29.52,4.0,ENE,13.8,-,N/A,,Overcast,70,2013-05-21 11:15:00
6:35 AM,55.4,53.6,94,29.52,4.0,ENE,13.8,19.6,N/A,,Overcast,70,2013-05-21 11:35:00
6:55 AM,55.4,51.8,88,29.53,4.0,ENE,10.4,19.6,N/A,,Overcast,70,2013-05-21 11:55:00
7:15 AM,55.4,51.8,88,29.53,2.5,ENE,16.1,-,N/A,,Overcast,70,2013-05-21 12:15:00
7:35 AM,55.4,51.8,88,29.54,2.0,ENE,13.8,20.7,N/A,,Overcast,70,2013-05-21 12:35:00
7:55 AM,55.4,51.8,88,29.55,2.0,ENE,12.7,-,N/A,,Overcast,70,2013-05-21 12:55:00
8:15 AM,55.4,51.8,88,29.55,2.5,ENE,15.0,-,N/A,Rain,Light Rain,70,2013-05-21 13:15:00
8:35 AM,55.4,51.8,88,29.55,3.0,ENE,12.7,18.4,N/A,Rain,Light Rain,70,2013-05-21 13:35:00
8:55 AM,55.4,51.8,88,29.55,2.5,ENE,12.7,-,N/A,,Overcast,60,2013-05-21 13:55:00
9:15 AM,55.4,51.8,88,29.56,2.0,ENE,11.5,18.4,N/A,Rain,Light Rain,60,2013-05-21 14:15:00
9:35 AM,55.4,51.8,88,29.56,1.5,ENE,13.8,-,0.01,Rain,Light Rain,60,2013-05-21 14:35:00
9:55 AM,55.4,51.8,88,29.57,1.2,ENE,13.8,-,0.01,Rain,Light Rain,60,2013-05-21 14:55:00
10:15 AM,55.4,51.8,88,29.57,1.0,ENE,11.5,-,N/A,Rain,Light Rain,60,2013-05-21 15:15:00
10:35 AM,55.4,51.8,88,29.58,1.2,ENE,13.8,-,N/A,Rain,Light Rain,60,2013-05-21 15:35:00
10:55 AM,53.6,51.8,94,29.58,1.5,ENE,12.7,-,N/A,Rain,Light Rain,60,2013-05-21 15:55:00
11:15 AM,53.6,51.8,94,29.59,1.2,ENE,11.5,-,N/A,,Light Drizzle,60,2013-05-21 16:15:00
11:35 AM,53.6,51.8,94,29.59,1.2,ENE,11.5,-,N/A,,Light Drizzle,60,2013-05-21 16:35:00
11:55 AM,53.6,51.8,94,29.60,1.2,ENE,12.7,-,N/A,Rain,Rain,70,2013-05-21 16:55:00
12:15 PM,55.4,51.8,88,29.60,1.8,ENE,9.2,-,N/A,,Drizzle,60,2013-05-21 17:15:00
12:35 PM,55.4,51.8,88,29.61,3.0,ENE,9.2,-,N/A,,Light Drizzle,60,2013-05-21 17:35:00
12:55 PM,55.4,51.8,88,29.61,4.0,ENE,9.2,-,N/A,Rain,Light Rain,60,2013-05-21 17:55:00
1:16 PM,53.6,50.0,88,29.62,3.0,ENE,13.8,-,N/A,Rain,Light Rain,70,2013-05-21 18:16:00
1:35 PM,55.4,51.8,88,29.62,4.0,NE,10.4,18.4,N/A,Rain,Light Rain,50,2013-05-21 18:35:00
1:55 PM,55.4,51.8,88,29.62,10.0,NE,15.0,-,N/A,,Light Drizzle,50,2013-05-21 18:55:00
2:15 PM,55.4,51.8,88,29.62,10.0,ENE,10.4,20.7,0.01,Rain,Light Rain,60,2013-05-21 19:15:00
2:35 PM,55.4,50.0,82,29.63,10.0,ENE,13.8,-,0.03,Rain,Light Rain,60,2013-05-21 19:35:00
2:55 PM,55.4,51.8,88,29.63,10.0,ENE,11.5,-,0.03,,Drizzle,60,2013-05-21 19:55:00
3:15 PM,55.4,51.8,88,29.64,10.0,NE,11.5,-,0.01,Rain,Light Rain,50,2013-05-21 20:15:00
3:35 PM,55.4,50.0,82,29.65,10.0,ENE,13.8,-,0.01,Rain,Light Rain,60,2013-05-21 20:35:00
3:55 PM,53.6,50.0,88,29.66,10.0,NE,12.7,-,0.03,Rain,Light Rain,50,2013-05-21 20:55:00
4:15 PM,53.6,48.2,82,29.66,10.0,NE,11.5,17.3,0.01,Rain,Rain,50,2013-05-21 21:15:00
4:35 PM,53.6,48.2,82,29.67,10.0,ENE,12.7,17.3,0.03,Rain,Light Rain,70,2013-05-21 21:35:00
4:55 PM,53.6,48.2,82,29.68,10.0,ENE,11.5,-,0.05,Rain,Light Rain,70,2013-05-21 21:55:00
5:15 PM,53.6,50.0,88,29.68,10.0,ENE,11.5,-,0.03,Rain,Light Rain,60,2013-05-21 22:15:00
5:35 PM,53.6,50.0,88,29.68,10.0,NE,9.2,-,0.05,Rain,Light Rain,50,2013-05-21 22:35:00
5:55 PM,53.6,50.0,88,29.68,10.0,NE,9.2,-,0.07,Rain,Light Rain,50,2013-05-21 22:55:00
6:15 PM,53.6,50.0,88,29.67,10.0,ENE,12.7,-,0.03,Rain,Light Rain,60,2013-05-21 23:15:00
6:35 PM,53.6,50.0,88,29.68,10.0,NE,11.5,18.4,0.04,Rain,Rain,50,2013-05-21 23:35:00
6:55 PM,53.6,50.0,88,29.68,10.0,ENE,11.5,-,0.05,Rain,Light Rain,60,2013-05-21 23:55:00
7:15 PM,53.6,50.0,88,29.68,10.0,NE,11.5,-,0.01,Rain,Light Rain,50,2013-05-22 00:15:00
7:35 PM,53.6,48.2,82,29.69,10.0,NE,12.7,18.4,0.03,Rain,Light Rain,50,2013-05-22 00:35:00
7:55 PM,53.6,48.2,82,29.69,10.0,NE,12.7,20.7,0.03,Rain,Light Rain,50,2013-05-22 00:55:00
8:15 PM,53.6,48.2,82,29.70,10.0,ENE,13.8,18.4,0.01,Rain,Light Rain,60,2013-05-22 01:15:00
8:35 PM,53.6,48.2,82,29.70,7.0,ENE,12.7,-,0.02,Rain,Light Rain,60,2013-05-22 01:35:00
8:55 PM,51.8,48.2,88,29.71,7.0,NE,11.5,-,0.04,Rain,Light Rain,50,2013-05-22 01:55:00
9:15 PM,51.8,46.4,82,29.72,7.0,ENE,10.4,-,0.02,Rain,Light Rain,60,2013-05-22 02:15:00
9:35 PM,51.8,46.4,82,29.73,5.0,ENE,15.0,20.7,0.04,Rain,Heavy Rain,60,2013-05-22 02:35:00
9:55 PM,51.8,46.4,82,29.73,5.0,NE,15.0,21.9,0.06,Rain,Light Rain,50,2013-05-22 02:55:00
10:15 PM,51.8,46.4,82,29.75,7.0,ENE,15.0,25.3,0.01,Rain,Light Rain,60,2013-05-22 03:15:00
10:35 PM,50.0,46.4,87,29.75,7.0,ENE,17.3,24.2,0.01,Rain,Rain,60,2013-05-22 03:35:00
10:55 PM,50.0,46.4,87,29.75,7.0,ENE,16.1,20.7,0.02,,Drizzle,60,2013-05-22 03:55:00
11:15 PM,50.0,46.4,87,29.74,7.0,NE,15.0,24.2,N/A,,Light Drizzle,50,2013-05-22 04:15:00
11:35 PM,50.0,46.4,87,29.74,7.0,NE,11.5,-,N/A,,Light Drizzle,50,2013-05-22 04:35:00
11:55 PM,50.0,46.4,87,29.75,10.0,NE,15.0,23.0,N/A,,Overcast,50,2013-05-22 04:55:00